Location: Bannatyne
(13.0833°N, 59.5333°W)
Time: 18:43:56
(UTC+00:00)

Vanguard 3 - Pass Details

Date: 25 January 2020
Orbit: 508 x 3263 km, 33.3° (Epoch: 25 February)

Event Time Altitude Azimuth Distance (km) Brightness Sun altitude
Rises 04:07:00 0° 303° (WNW) 5,857 - -83.9°
Reaches altitude 10° 04:11:37 10° 305° (NW) 4,397 - -84.0°
Maximum altitude 04:22:28 74° 30° (NNE) 1,264 - -83.3°
Drops below altitude 10° 04:28:23 10° 115° (ESE) 2,493 - -82.6°
Sets 04:30:21 0° 117° (ESE) 3,216 - -82.3°
